When you browse on this site, cookies collect data to enhance your experience and personalize the content and advertising you see.
Visit our Privacy Policy to learn more. By continuing to use the site, you agree to this use of cookies and data.
  • In Spain
  • List of Countries
  • For 7 days
  • Water Temperature
  • Satellite Maps
  • Weather Map
  • Weather Widgets
  • user-avatar
    Login

    Hourly Weather Adelaide

    Today, 22 February, Friday

    Time Temperature Precipitation Wind Pressure Humidity
    00:00 +18°C° 0 mm 4 mps 761 mmHg 74%
    01:00 +18°C° 0 mm 4 mps 761 mmHg 74%
    02:00 +18°C° 0 mm 4 mps 761 mmHg 73%
    03:00 +18°C° 0 mm 3 mps 761 mmHg 74%
    04:00 +18°C° 0 mm 3 mps 761 mmHg 72%
    05:00 +18°C° 0 mm 3 mps 761 mmHg 70%
    06:00 +18°C° 0 mm 3 mps 762 mmHg 68%
    07:00 +20°C° 0 mm 3 mps 762 mmHg 59%
    08:00 +22°C° 0 mm 3 mps 762 mmHg 50%
    09:00 +26°C° 0 mm 3 mps 762 mmHg 42%
    10:00 +28°C° 0 mm 2 mps 762 mmHg 37%
    11:00 +30°C° 0 mm 2 mps 762 mmHg 32%
    12:00 +32°C° 0 mm 2 mps 762 mmHg 28%
    13:00 +33°C° 0 mm 3 mps 761 mmHg 28%
    14:00 +33°C° 0 mm 3 mps 761 mmHg 28%
    15:00 +33°C° 0 mm 4 mps 760 mmHg 28%
    16:00 +30°C° 0 mm 4 mps 761 mmHg 33%
    17:00 +28°C° 0 mm 5 mps 761 mmHg 38%
    18:00 +27°C° 0 mm 5 mps 761 mmHg 43%
    19:00 +25°C° 0 mm 5 mps 761 mmHg 50%
    20:00 +23°C° 0 mm 5 mps 761 mmHg 57%
    21:00 +21°C° 0 mm 5 mps 761 mmHg 64%
    22:00 +22°C° 0 mm 5 mps 761 mmHg 64%
    23:00 +22°C° 0 mm 5 mps 761 mmHg 64%

    Tomorrow, 23 February, Saturday

    Time Temperature Precipitation Wind Pressure Humidity
    00:00 +22°C° 0 mm 5 mps 761 mmHg 64%
    01:00 +22°C° 0 mm 4 mps 761 mmHg 62%
    02:00 +22°C° 0 mm 4 mps 761 mmHg 59%
    03:00 +22°C° 0 mm 4 mps 761 mmHg 57%
    04:00 +21°C° 0 mm 4 mps 761 mmHg 57%
    05:00 +21°C° 0 mm 4 mps 761 mmHg 58%
    06:00 +21°C° 0 mm 4 mps 762 mmHg 59%
    07:00 +23°C° 0 mm 4 mps 762 mmHg 52%
    08:00 +26°C° 0 mm 3 mps 762 mmHg 45%
    09:00 +28°C° 0 mm 3 mps 762 mmHg 37%
    10:00 +30°C° 0 mm 3 mps 762 mmHg 33%
    11:00 +33°C° 0 mm 3 mps 762 mmHg 29%
    12:00 +35°C° 0 mm 2 mps 762 mmHg 24%
    13:00 +35°C° 0 mm 3 mps 761 mmHg 23%
    14:00 +36°C° 0 mm 3 mps 761 mmHg 22%
    15:00 +36°C° 0 mm 3 mps 760 mmHg 21%
    16:00 +35°C° 0 mm 4 mps 760 mmHg 24%
    17:00 +33°C° 0 mm 4 mps 760 mmHg 27%
    18:00 +30°C° 0 mm 4 mps 760 mmHg 30%
    19:00 +29°C° 0 mm 4 mps 760 mmHg 35%
    20:00 +27°C° 0 mm 4 mps 761 mmHg 40%
    21:00 +25°C° 0 mm 4 mps 761 mmHg 45%
    22:00 +25°C° 0 mm 4 mps 761 mmHg 45%
    23:00 +25°C° 0 mm 4 mps 761 mmHg 45%

    Day after tomorrow, 24 February, Sunday

    Time Temperature Precipitation Wind Pressure Humidity
    00:00 +25°C° 0 mm 4 mps 760 mmHg 45%
    01:00 +25°C° 0 mm 3 mps 760 mmHg 41%
    02:00 +25°C° 0 mm 3 mps 760 mmHg 36%
    03:00 +26°C° 0 mm 3 mps 760 mmHg 32%
    04:00 +25°C° 0 mm 3 mps 760 mmHg 31%
    05:00 +25°C° 0 mm 3 mps 760 mmHg 30%
    06:00 +25°C° 0 mm 3 mps 760 mmHg 29%
    07:00 +28°C° 0 mm 3 mps 761 mmHg 27%
    08:00 +30°C° 0 mm 3 mps 761 mmHg 24%
    09:00 +34°C° 0 mm 3 mps 761 mmHg 22%
    10:00 +36°C° 0 mm 3 mps 761 mmHg 20%
    11:00 +37°C° 0 mm 2 mps 760 mmHg 19%
    12:00 +39°C° 0 mm 1 mps 760 mmHg 17%
    13:00 +39°C° 0 mm 2 mps 760 mmHg 17%
    14:00 +39°C° 0 mm 2 mps 759 mmHg 16%
    15:00 +40°C° 0 mm 2 mps 759 mmHg 16%
    16:00 +38°C° 0 mm 2 mps 759 mmHg 17%
    17:00 +37°C° 0 mm 3 mps 759 mmHg 18%
    18:00 +36°C° 0 mm 3 mps 759 mmHg 19%
    19:00 +34°C° 0 mm 3 mps 759 mmHg 22%
    20:00 +33°C° 0 mm 4 mps 760 mmHg 24%
    21:00 +30°C° 0 mm 4 mps 760 mmHg 26%
    22:00 +30°C° 0 mm 4 mps 760 mmHg 26%
    23:00 +30°C° 0 mm 4 mps 760 mmHg 26%

    25 February, Monday

    Time Temperature Precipitation Wind Pressure Humidity
    00:00 +29°C° 0 mm 3 mps 760 mmHg 27%
    01:00 +29°C° 0 mm 3 mps 760 mmHg 27%
    02:00 +29°C° 0 mm 3 mps 760 mmHg 27%
    03:00 +28°C° 0 mm 3 mps 760 mmHg 28%
    04:00 +28°C° 0 mm 3 mps 760 mmHg 28%
    05:00 +28°C° 0 mm 3 mps 761 mmHg 27%
    06:00 +28°C° 0 mm 4 mps 761 mmHg 27%
    07:00 +30°C° 0 mm 4 mps 761 mmHg 25%
    08:00 +33°C° 0 mm 4 mps 762 mmHg 22%
    09:00 +36°C° 0 mm 4 mps 762 mmHg 20%
    10:00 +37°C° 0 mm 4 mps 761 mmHg 19%
    11:00 +38°C° 0 mm 3 mps 761 mmHg 18%
    12:00 +39°C° 0 mm 2 mps 761 mmHg 17%
    13:00 +39°C° 0 mm 2 mps 760 mmHg 17%
    14:00 +39°C° 0 mm 2 mps 760 mmHg 17%
    15:00 +39°C° 0 mm 2 mps 759 mmHg 16%
    16:00 +38°C° 0 mm 2 mps 759 mmHg 18%
    17:00 +36°C° 0 mm 1 mps 759 mmHg 19%
    18:00 +35°C° 0 mm 1 mps 759 mmHg 20%
    19:00 +35°C° 0 mm 2 mps 759 mmHg 22%
    20:00 +32°C° 0 mm 2 mps 760 mmHg 23%
    21:00 +31°C° 0 mm 3 mps 760 mmHg 25%
    22:00 +31°C° 0 mm 3 mps 760 mmHg 25%
    23:00 +30°C° 0 mm 3 mps 760 mmHg 25%

    26 February, Tuesday

    Time Temperature Precipitation Wind Pressure Humidity
    00:00 +30°C° 0 mm 3 mps 759 mmHg 24%
    01:00 +30°C° 0 mm 2 mps 759 mmHg 25%
    02:00 +29°C° 0 mm 2 mps 759 mmHg 25%
    03:00 +29°C° 0 mm 2 mps 759 mmHg 26%
    04:00 +28°C° 0 mm 2 mps 759 mmHg 26%
    05:00 +28°C° 0 mm 2 mps 760 mmHg 27%
    06:00 +28°C° 0 mm 2 mps 760 mmHg 27%
    07:00 +30°C° 0 mm 3 mps 760 mmHg 24%
    08:00 +33°C° 0 mm 3 mps 760 mmHg 22%
    09:00 +35°C° 0 mm 4 mps 761 mmHg 19%
    10:00 +36°C° 0 mm 4 mps 760 mmHg 19%
    11:00 +36°C° 0 mm 4 mps 760 mmHg 20%
    12:00 +37°C° 0 mm 4 mps 760 mmHg 20%
    13:00 +37°C° 0 mm 4 mps 759 mmHg 22%
    14:00 +36°C° 0 mm 4 mps 759 mmHg 24%
    15:00 +36°C° 0 mm 5 mps 758 mmHg 27%
    16:00 +34°C° 0 mm 4 mps 758 mmHg 33%
    17:00 +32°C° 0 mm 4 mps 758 mmHg 40%
    18:00 +29°C° 0 mm 4 mps 759 mmHg 47%
    19:00 +27°C° 0 mm 4 mps 759 mmHg 53%
    20:00 +26°C° 0 mm 4 mps 759 mmHg 59%
    21:00 +24°C° 0 mm 3 mps 760 mmHg 64%
    22:00 +24°C° 0 mm 3 mps 760 mmHg 67%
    23:00 +22°C° 0 mm 3 mps 759 mmHg 69%

    27 February, Wednesday

    Time Temperature Precipitation Wind Pressure Humidity
    00:00 +21°C° 0 mm 2 mps 759 mmHg 72%
    01:00 +21°C° 0 mm 2 mps 759 mmHg 73%
    02:00 +21°C° 0 mm 2 mps 759 mmHg 74%
    03:00 +22°C° 0 mm 1 mps 758 mmHg 76%
    04:00 +22°C° 0 mm 1 mps 759 mmHg 76%
    05:00 +22°C° 0 mm 1 mps 759 mmHg 77%
    06:00 +22°C° 0 mm 1 mps 759 mmHg 77%
    07:00 +24°C° 0 mm 1 mps 759 mmHg 67%
    08:00 +27°C° 0 mm 1 mps 759 mmHg 56%
    09:00 +29°C° 0 mm 1 mps 759 mmHg 46%
    10:00 +30°C° 0 mm 2 mps 759 mmHg 43%
    11:00 +31°C° 0 mm 3 mps 759 mmHg 39%
    12:00 +33°C° 0 mm 4 mps 759 mmHg 36%
    13:00 +33°C° 0 mm 4 mps 758 mmHg 35%
    14:00 +33°C° 0 mm 4 mps 758 mmHg 33%
    15:00 +33°C° 0 mm 4 mps 757 mmHg 32%
    16:00 +32°C° 0 mm 4 mps 758 mmHg 37%
    17:00 +29°C° 0 mm 4 mps 758 mmHg 42%
    18:00 +27°C° 0 mm 4 mps 758 mmHg 47%
    19:00 +26°C° 0 mm 3 mps 758 mmHg 53%
    20:00 +24°C° 0 mm 3 mps 759 mmHg 60%
    21:00 +23°C° 0 mm 2 mps 759 mmHg 66%
    22:00 +21°C° 0 mm 2 mps 759 mmHg 68%
    23:00 +21°C° 0 mm 2 mps 759 mmHg 69%
    Show more